TimeCDT,TemperatureF,Dew PointF,Humidity,Sea Level PressureIn,VisibilityMPH,Wind Direction,Wind SpeedMPH,Gust SpeedMPH,PrecipitationIn,Events,Conditions,WindDirDegrees,DateUTC
12:53 AM,57.0,46.0,67,30.01,10.0,SW,10.4,-,N/A,,Clear,230,2012-10-15 05:53:00
1:53 AM,55.9,45.0,67,30.00,10.0,WSW,3.5,-,N/A,,Clear,250,2012-10-15 06:53:00
2:53 AM,57.0,44.1,62,29.99,10.0,WSW,4.6,-,N/A,,Clear,250,2012-10-15 07:53:00
3:53 AM,55.9,44.1,64,29.99,6.0,West,5.8,-,N/A,,Haze,270,2012-10-15 08:53:00
4:53 AM,55.0,44.1,67,29.99,6.0,West,8.1,-,N/A,,Haze,270,2012-10-15 09:53:00
5:53 AM,52.0,44.1,74,29.99,10.0,West,5.8,-,N/A,,Clear,260,2012-10-15 10:53:00
7:53 AM,53.1,44.1,71,30.01,10.0,West,4.6,-,N/A,,Clear,280,2012-10-15 12:53:00
8:53 AM,57.0,46.0,67,30.01,10.0,West,4.6,-,N/A,,Clear,280,2012-10-15 13:53:00
9:53 AM,63.0,46.9,56,30.01,10.0,West,3.5,-,N/A,,Clear,270,2012-10-15 14:53:00
10:53 AM,70.0,46.9,44,30.00,10.0,SW,5.8,-,N/A,,Clear,230,2012-10-15 15:53:00
11:53 AM,73.9,46.9,38,29.97,10.0,WSW,10.4,-,N/A,,Clear,240,2012-10-15 16:53:00
12:53 PM,77.0,46.9,34,29.95,10.0,West,4.6,-,N/A,,Clear,280,2012-10-15 17:53:00
1:53 PM,79.0,46.0,31,29.92,10.0,West,9.2,-,N/A,,Clear,280,2012-10-15 18:53:00
2:53 PM,80.1,46.0,30,29.89,10.0,West,9.2,-,N/A,,Clear,280,2012-10-15 19:53:00
3:53 PM,80.1,46.9,31,29.88,10.0,WSW,5.8,-,N/A,,Clear,250,2012-10-15 20:53:00
4:53 PM,80.1,48.0,32,29.86,10.0,SW,6.9,-,N/A,,Clear,220,2012-10-15 21:53:00
5:53 PM,77.0,52.0,42,29.84,10.0,South,3.5,-,N/A,,Clear,180,2012-10-15 22:53:00
6:53 PM,73.0,48.0,41,29.83,10.0,SE,5.8,-,N/A,,Clear,140,2012-10-15 23:53:00
7:53 PM,68.0,48.9,50,29.83,10.0,SSE,8.1,-,N/A,,Clear,150,2012-10-16 00:53:00
8:53 PM,66.9,48.9,52,29.83,10.0,SSE,9.2,-,N/A,,Clear,160,2012-10-16 01:53:00
9:53 PM,64.9,50.0,58,29.83,10.0,South,11.5,-,N/A,,Clear,170,2012-10-16 02:53:00
10:53 PM,61.0,50.0,67,29.81,10.0,South,10.4,-,N/A,,Clear,190,2012-10-16 03:53:00
11:53 PM,64.0,48.9,58,29.79,10.0,South,12.7,-,N/A,,Clear,190,2012-10-16 04:53:00